When you browse on this site, cookies collect data to enhance your experience and personalize the content and advertising you see.
Visit our Privacy Policy to learn more. By continuing to use the site, you agree to this use of cookies and data.

Hourly Weather Solwezi

Today, 7 August, Friday

Time Temperature Precipitation Wind Pressure Humidity
00:00 +28°C° 0 mm 4 mps 715 mmHg 69%
01:00 +27°C° 0 mm 4 mps 715 mmHg 70%
02:00 +27°C° 0 mm 4 mps 714 mmHg 71%
03:00 +27°C° 0 mm 4 mps 714 mmHg 73%
04:00 +26°C° 0 mm 4 mps 715 mmHg 74%
05:00 +26°C° 0 mm 4 mps 715 mmHg 76%
06:00 +27°C° 0 mm 4 mps 715 mmHg 73%
07:00 +27°C° 0 mm 5 mps 715 mmHg 70%
08:00 +28°C° 0 mm 5 mps 715 mmHg 68%
09:00 +29°C° 0 mm 6 mps 716 mmHg 61%
10:00 +32°C° 0 mm 6 mps 716 mmHg 54%
11:00 +33°C° 0 mm 6 mps 716 mmHg 47%
12:00 +34°C° 0 mm 6 mps 715 mmHg 43%
13:00 +35°C° 0 mm 6 mps 715 mmHg 40%
14:00 +36°C° 0 mm 6 mps 714 mmHg 37%
15:00 +36°C° 0 mm 6 mps 713 mmHg 38%
16:00 +36°C° 0 mm 6 mps 713 mmHg 38%
17:00 +35°C° 0 mm 6 mps 712 mmHg 39%
18:00 +34°C° 0.2 mm 5 mps 713 mmHg 43%
19:00 +34°C° 0.2 mm 4 mps 713 mmHg 46%
20:00 +33°C° 0.2 mm 4 mps 713 mmHg 50%
21:00 +32°C° 0.2 mm 4 mps 713 mmHg 53%
22:00 +32°C° 0.2 mm 4 mps 714 mmHg 56%
23:00 +30°C° 0.2 mm 4 mps 714 mmHg 59%

Tomorrow, 8 August, Saturday

Time Temperature Precipitation Wind Pressure Humidity
00:00 +30°C° 0.3 mm 4 mps 714 mmHg 61%
01:00 +29°C° 0.3 mm 4 mps 714 mmHg 64%
02:00 +29°C° 0.3 mm 4 mps 713 mmHg 66%
03:00 +28°C° 0.3 mm 4 mps 713 mmHg 68%
04:00 +28°C° 0.3 mm 4 mps 713 mmHg 70%
05:00 +27°C° 0.3 mm 5 mps 713 mmHg 72%
06:00 +28°C° 0.3 mm 5 mps 713 mmHg 70%
07:00 +28°C° 0.3 mm 5 mps 714 mmHg 69%
08:00 +29°C° 0.3 mm 6 mps 714 mmHg 67%
09:00 +30°C° 0 mm 6 mps 714 mmHg 61%
10:00 +33°C° 0 mm 5 mps 714 mmHg 55%
11:00 +34°C° 0 mm 5 mps 714 mmHg 49%
12:00 +35°C° 0 mm 5 mps 713 mmHg 47%
13:00 +36°C° 0 mm 4 mps 713 mmHg 44%
14:00 +36°C° 0 mm 4 mps 712 mmHg 42%
15:00 +36°C° 0 mm 3 mps 711 mmHg 42%
16:00 +36°C° 0 mm 3 mps 710 mmHg 41%
17:00 +36°C° 0 mm 3 mps 710 mmHg 41%
18:00 +34°C° 1 mm 3 mps 710 mmHg 49%
19:00 +32°C° 1 mm 4 mps 710 mmHg 57%
20:00 +29°C° 1 mm 5 mps 710 mmHg 66%
21:00 +29°C° 1.5 mm 5 mps 711 mmHg 69%
22:00 +28°C° 1.5 mm 5 mps 711 mmHg 73%
23:00 +27°C° 1.5 mm 5 mps 711 mmHg 77%

Day after tomorrow, 9 August, Sunday

Time Temperature Precipitation Wind Pressure Humidity
00:00 +27°C° 1.7 mm 5 mps 711 mmHg 78%
01:00 +27°C° 1.7 mm 5 mps 711 mmHg 79%
02:00 +26°C° 1.7 mm 5 mps 711 mmHg 80%
03:00 +26°C° 1.2 mm 4 mps 711 mmHg 79%
04:00 +26°C° 1.2 mm 4 mps 711 mmHg 79%
05:00 +26°C° 1.2 mm 3 mps 711 mmHg 78%
06:00 +26°C° 0.5 mm 3 mps 711 mmHg 79%
07:00 +26°C° 0.5 mm 3 mps 711 mmHg 80%
08:00 +25°C° 0.5 mm 3 mps 712 mmHg 81%
09:00 +26°C° 0.2 mm 3 mps 712 mmHg 79%
10:00 +26°C° 0.2 mm 3 mps 712 mmHg 77%
11:00 +26°C° 0.2 mm 3 mps 712 mmHg 75%
12:00 +27°C° 0 mm 3 mps 711 mmHg 73%
13:00 +27°C° 0 mm 3 mps 711 mmHg 71%
14:00 +28°C° 0 mm 3 mps 711 mmHg 70%
15:00 +28°C° 0 mm 3 mps 710 mmHg 68%
16:00 +29°C° 0 mm 2 mps 710 mmHg 66%
17:00 +29°C° 0 mm 2 mps 710 mmHg 64%
18:00 +29°C° 0 mm 3 mps 710 mmHg 66%
19:00 +28°C° 0 mm 4 mps 711 mmHg 69%
20:00 +28°C° 0 mm 5 mps 711 mmHg 71%
21:00 +27°C° 0 mm 5 mps 712 mmHg 73%
22:00 +27°C° 0 mm 6 mps 712 mmHg 75%
23:00 +26°C° 0 mm 6 mps 712 mmHg 78%

10 August, Monday

Time Temperature Precipitation Wind Pressure Humidity
00:00 +26°C° 0.1 mm 6 mps 712 mmHg 77%
01:00 +26°C° 0.1 mm 6 mps 712 mmHg 77%
02:00 +26°C° 0.1 mm 6 mps 712 mmHg 77%
03:00 +26°C° 0.2 mm 6 mps 711 mmHg 78%
04:00 +24°C° 0.2 mm 6 mps 711 mmHg 79%
05:00 +24°C° 0.2 mm 6 mps 711 mmHg 80%
06:00 +24°C° 0 mm 6 mps 712 mmHg 80%
07:00 +26°C° 0 mm 7 mps 712 mmHg 79%
08:00 +26°C° 0 mm 7 mps 713 mmHg 78%
09:00 +27°C° 0 mm 7 mps 713 mmHg 74%
10:00 +28°C° 0 mm 7 mps 714 mmHg 70%
11:00 +29°C° 0 mm 7 mps 714 mmHg 66%
12:00 +29°C° 0 mm 7 mps 713 mmHg 64%
13:00 +30°C° 0 mm 7 mps 713 mmHg 61%
14:00 +31°C° 0 mm 8 mps 712 mmHg 59%
15:00 +30°C° 0 mm 7 mps 712 mmHg 58%
16:00 +32°C° 0 mm 7 mps 712 mmHg 56%
17:00 +32°C° 0 mm 7 mps 711 mmHg 55%
18:00 +30°C° 0 mm 6 mps 712 mmHg 58%
19:00 +29°C° 0 mm 6 mps 712 mmHg 62%
20:00 +28°C° 0 mm 5 mps 712 mmHg 65%
21:00 +27°C° 0 mm 5 mps 713 mmHg 67%
22:00 +27°C° 0 mm 5 mps 713 mmHg 69%
23:00 +26°C° 0 mm 5 mps 714 mmHg 71%

11 August, Tuesday

Time Temperature Precipitation Wind Pressure Humidity
00:00 +26°C° 0 mm 5 mps 713 mmHg 72%
01:00 +26°C° 0 mm 5 mps 713 mmHg 73%
02:00 +26°C° 0 mm 5 mps 713 mmHg 74%
03:00 +26°C° 0 mm 5 mps 713 mmHg 74%
04:00 +26°C° 0 mm 5 mps 713 mmHg 74%
05:00 +25°C° 0 mm 5 mps 713 mmHg 74%
06:00 +26°C° 0 mm 5 mps 713 mmHg 74%
07:00 +26°C° 0 mm 5 mps 714 mmHg 74%
08:00 +26°C° 0 mm 5 mps 714 mmHg 74%
09:00 +28°C° 0 mm 5 mps 714 mmHg 66%
10:00 +29°C° 0 mm 5 mps 714 mmHg 59%
11:00 +32°C° 0 mm 6 mps 715 mmHg 52%
12:00 +33°C° 0 mm 5 mps 714 mmHg 48%
13:00 +34°C° 0 mm 5 mps 713 mmHg 44%
14:00 +35°C° 0 mm 5 mps 713 mmHg 41%
15:00 +35°C° 0 mm 5 mps 712 mmHg 41%
16:00 +35°C° 0 mm 5 mps 712 mmHg 41%
17:00 +35°C° 0 mm 5 mps 711 mmHg 41%
18:00 +34°C° 0 mm 5 mps 711 mmHg 45%
19:00 +33°C° 0 mm 5 mps 712 mmHg 48%
20:00 +32°C° 0 mm 5 mps 712 mmHg 52%
21:00 +32°C° 0 mm 4 mps 712 mmHg 55%
22:00 +30°C° 0 mm 4 mps 713 mmHg 58%
23:00 +29°C° 0 mm 4 mps 713 mmHg 61%

12 August, Wednesday

Time Temperature Precipitation Wind Pressure Humidity
00:00 +29°C° 0 mm 4 mps 713 mmHg 63%
01:00 +29°C° 0 mm 4 mps 712 mmHg 65%
02:00 +28°C° 0 mm 4 mps 712 mmHg 67%
03:00 +28°C° 0.2 mm 4 mps 712 mmHg 69%
04:00 +27°C° 0.2 mm 4 mps 712 mmHg 72%
05:00 +27°C° 0.2 mm 4 mps 712 mmHg 75%
06:00 +27°C° 0 mm 4 mps 713 mmHg 73%
07:00 +28°C° 0 mm 5 mps 713 mmHg 72%
08:00 +28°C° 0 mm 5 mps 714 mmHg 71%
09:00 +29°C° 0 mm 5 mps 714 mmHg 66%
10:00 +32°C° 0 mm 5 mps 714 mmHg 60%
11:00 +33°C° 0 mm 5 mps 714 mmHg 54%
12:00 +33°C° 0 mm 5 mps 713 mmHg 52%
13:00 +34°C° 0 mm 5 mps 713 mmHg 51%
14:00 +34°C° 0 mm 5 mps 712 mmHg 49%
15:00 +34°C° 0 mm 4 mps 711 mmHg 47%
16:00 +35°C° 0 mm 3 mps 711 mmHg 46%
17:00 +35°C° 0 mm 3 mps 711 mmHg 44%
18:00 +34°C° 0.2 mm 2 mps 711 mmHg 47%
19:00 +32°C° 0.2 mm 2 mps 711 mmHg 49%
20:00 +31°C° 0.2 mm 2 mps 712 mmHg 52%
21:00 +31°C° 0.3 mm 2 mps 712 mmHg 56%
22:00 +30°C° 0.3 mm 2 mps 712 mmHg 61%
23:00 +29°C° 0.3 mm 2 mps 712 mmHg 65%
Show more